| time (UTC) | temp F | wind direction | speed MPH | gust MPH | rain 1hr in | rain 24hr in | rain mn in | humidity % | barometer mb |
| 20260902211026 | 91 | 164 | 1.0 | 3.0 | 0.00 | 0.04 | 0.04 | 49 | 1011.1 |
| 20260902210521 | 90 | 197 | 1.0 | 2.0 | 0.00 | 0.04 | 0.04 | 50 | 1011.3 |
| 20260902210020 | 90 | 92 | 2.0 | 2.0 | 0.00 | 0.04 | 0.04 | 50 | 1011.3 |
| 20260902205514 | 90 | 202 | 1.0 | 2.0 | 0.00 | 0.04 | 0.04 | 50 | 1011.3 |
| 20260902205010 | 91 | 93 | 1.0 | 2.0 | 0.00 | 0.04 | 0.04 | 50 | 1011.3 |
| 20260902204509 | 91 | 171 | 0.0 | 2.0 | 0.00 | 0.04 | 0.04 | 49 | 1011.3 |
| 20260902204005 | 91 | 176 | 2.0 | 3.0 | 0.00 | 0.04 | 0.04 | 49 | 1011.3 |
| 20260902203500 | 92 | 189 | 0.0 | 2.0 | 0.00 | 0.04 | 0.04 | 49 | 1011.3 |
| 20260902202958 | 90 | 167 | 0.0 | 0.0 | 0.00 | 0.04 | 0.04 | 50 | 1011.4 |
| 20260902202455 | 90 | 178 | 0.0 | 2.0 | 0.00 | 0.04 | 0.04 | 50 | 1011.6 |
| 20260902201952 | 91 | 188 | 2.0 | 2.0 | 0.00 | 0.04 | 0.04 | 49 | 1011.6 |
| 20260902201447 | 90 | 288 | 2.0 | 3.0 | 0.00 | 0.04 | 0.04 | 50 | 1011.7 |
| 20260902200946 | 89 | 212 | 2.0 | 3.0 | 0.00 | 0.04 | 0.04 | 50 | 1011.7 |
| 20260902200441 | 89 | 217 | 2.0 | 3.0 | 0.00 | 0.04 | 0.04 | 51 | 1011.8 |
| 20260902195937 | 89 | 198 | 0.0 | 2.0 | 0.00 | 0.04 | 0.04 | 51 | 1011.8 |
| 20260902195432 | 89 | 169 | 1.0 | 2.0 | 0.00 | 0.04 | 0.04 | 51 | 1011.9 |
| 20260902194931 | 89 | 184 | 1.0 | 2.0 | 0.00 | 0.04 | 0.04 | 51 | 1012.0 |
| 20260902194426 | 88 | 234 | 1.0 | 2.0 | 0.00 | 0.04 | 0.04 | 52 | 1012.1 |
| 20260902193921 | 88 | 176 | 1.0 | 2.0 | 0.00 | 0.04 | 0.04 | 52 | 1012.1 |
| 20260902193417 | 88 | 273 | 2.0 | 3.0 | 0.00 | 0.04 | 0.04 | 52 | 1012.1 |
| 20260902192916 | 88 | 236 | 2.0 | 3.0 | 0.00 | 0.04 | 0.04 | 52 | 1012.2 |
| 20260902192415 | 87 | 192 | 1.0 | 2.0 | 0.00 | 0.04 | 0.04 | 54 | 1012.3 |
| 20260902191914 | 88 | 171 | 3.0 | 3.0 | 0.00 | 0.04 | 0.04 | 54 | 1012.3 |
| 20260902191410 | 88 | 175 | 1.0 | 2.0 | 0.00 | 0.04 | 0.04 | 53 | 1012.4 |
| 20260902190910 | 87 | 134 | 1.0 | 2.0 | 0.00 | 0.04 | 0.04 | 54 | 1012.3 |
| 20260902190405 | 87 | 206 | 3.0 | 3.0 | 0.00 | 0.04 | 0.04 | 53 | 1012.3 |
| 20260902185901 | 87 | 195 | 2.0 | 2.0 | 0.00 | 0.04 | 0.04 | 54 | 1012.3 |
| 20260902185356 | 87 | 180 | 0.0 | 0.0 | 0.00 | 0.04 | 0.04 | 54 | 1012.2 |
| 20260902184852 | 87 | 175 | 0.0 | 0.0 | 0.00 | 0.04 | 0.04 | 55 | 1012.3 |
| 20260902184347 | 86 | 167 | 2.0 | 2.0 | 0.00 | 0.04 | 0.04 | 56 | 1012.3 |
| 20260902183842 | 86 | 166 | 4.0 | 5.0 | 0.00 | 0.04 | 0.04 | 54 | 1012.3 |
| 20260902183338 | 85 | 68 | 2.0 | 3.0 | 0.00 | 0.04 | 0.04 | 56 | 1012.3 |
| 20260902182834 | 85 | 290 | 2.0 | 2.0 | 0.00 | 0.04 | 0.04 | 55 | 1012.4 |
| 20260902182330 | 85 | 66 | 0.0 | 2.0 | 0.00 | 0.04 | 0.04 | 57 | 1012.4 |
| 20260902181826 | 85 | 176 | 2.0 | 2.0 | 0.00 | 0.04 | 0.04 | 57 | 1012.3 |
| 20260902181321 | 85 | 5 | 5.0 | 5.0 | 0.00 | 0.04 | 0.04 | 56 | 1012.5 |
| 20260902180815 | 84 | 145 | 1.0 | 2.0 | 0.00 | 0.04 | 0.04 | 59 | 1012.5 |
| 20260902180311 | 84 | 94 | 2.0 | 3.0 | 0.00 | 0.04 | 0.04 | 59 | 1012.6 |
| 20260902175806 | 83 | 173 | 2.0 | 3.0 | 0.00 | 0.04 | 0.04 | 57 | 1012.8 |
| 20260902175306 | 83 | 124 | 3.0 | 3.0 | 0.00 | 0.04 | 0.04 | 57 | 1013.1 |
| 20260902174757 | 84 | 211 | 3.0 | 3.0 | 0.00 | 0.04 | 0.04 | 57 | 1013.3 |
| 20260902174254 | 84 | 147 | 2.0 | 2.0 | 0.00 | 0.04 | 0.04 | 59 | 1013.2 |
| 20260902173749 | 83 | 150 | 0.0 | 0.0 | 0.00 | 0.04 | 0.04 | 60 | 1013.4 |
| 20260902173248 | 82 | 164 | 0.0 | 0.0 | 0.00 | 0.04 | 0.04 | 62 | 1013.5 |
| 20260902172743 | 83 | 91 | 2.0 | 2.0 | 0.00 | 0.04 | 0.04 | 61 | 1013.7 |
| 20260902172238 | 82 | 132 | 1.0 | 2.0 | 0.00 | 0.04 | 0.04 | 62 | 1013.8 |
| 20260902171733 | 83 | 204 | 2.0 | 3.0 | 0.00 | 0.04 | 0.04 | 61 | 1013.6 |
| 20260902171228 | 82 | 158 | 1.0 | 2.0 | 0.00 | 0.04 | 0.04 | 63 | 1013.8 |
| 20260902170724 | 81 | 164 | 0.0 | 0.0 | 0.00 | 0.04 | 0.04 | 63 | 1013.9 |
| 20260902170219 | 82 | 183 | 2.0 | 3.0 | 0.00 | 0.04 | 0.04 | 62 | 1014.0 |
| 20260902165720 | 81 | 162 | 2.0 | 2.0 | 0.00 | 0.04 | 0.04 | 64 | 1013.7 |
| 20260902165214 | 81 | 188 | 1.0 | 2.0 | 0.00 | 0.04 | 0.04 | 63 | 1013.7 |
| 20260902164709 | 82 | 176 | 2.0 | 3.0 | 0.00 | 0.04 | 0.04 | 62 | 1013.5 |
| 20260902164208 | 82 | 158 | 0.0 | 0.0 | 0.00 | 0.04 | 0.04 | 62 | 1013.7 |
| 20260902163703 | 81 | 172 | 1.0 | 2.0 | 0.00 | 0.04 | 0.04 | 62 | 1013.5 |
| 20260902163203 | 80 | 110 | 2.0 | 3.0 | 0.00 | 0.04 | 0.04 | 64 | 1013.5 |
| 20260902162701 | 80 | 155 | 3.0 | 5.0 | 0.00 | 0.04 | 0.04 | 63 | 1013.6 |
| 20260902162156 | 80 | 177 | 0.0 | 0.0 | 0.00 | 0.04 | 0.04 | 66 | 1013.5 |
| 20260902161651 | 80 | 196 | 2.0 | 2.0 | 0.00 | 0.04 | 0.04 | 63 | 1013.6 |
| 20260902161147 | 80 | 162 | 2.0 | 2.0 | 0.00 | 0.04 | 0.04 | 65 | 1013.5 |
| 20260902160644 | 81 | 5 | 1.0 | 2.0 | 0.00 | 0.04 | 0.04 | 64 | 1013.8 |
| 20260902160138 | 80 | 181 | 0.0 | 0.0 | 0.00 | 0.04 | 0.04 | 65 | 1013.5 |
| 20260902155637 | 80 | 171 | 2.0 | 3.0 | 0.00 | 0.04 | 0.04 | 64 | 1013.3 |
| 20260902155135 | 80 | 152 | 0.0 | 0.0 | 0.00 | 0.04 | 0.04 | 65 | 1013.2 |
| 20260902154630 | 80 | 128 | 2.0 | 3.0 | 0.00 | 0.04 | 0.04 | 64 | 1013.2 |
| 20260902154125 | 80 | 166 | 0.0 | 0.0 | 0.00 | 0.04 | 0.04 | 64 | 1013.4 |
| 20260902153625 | 80 | 71 | 2.0 | 3.0 | 0.00 | 0.04 | 0.04 | 65 | 1013.2 |
| 20260902153115 | 80 | 164 | 0.0 | 0.0 | 0.00 | 0.04 | 0.04 | 66 | 1013.3 |
| 20260902152611 | 79 | 162 | 0.0 | 0.0 | 0.00 | 0.04 | 0.04 | 65 | 1013.2 |
| 20260902152106 | 78 | 155 | 0.0 | 0.0 | 0.00 | 0.04 | 0.04 | 67 | 1013.2 |
| 20260902151602 | 77 | 156 | 1.0 | 2.0 | 0.00 | 0.04 | 0.04 | 67 | 1013.4 |
| 20260902151100 | 77 | 160 | 0.0 | 2.0 | 0.00 | 0.04 | 0.04 | 71 | 1013.2 |
| 20260902150555 | 76 | 169 | 0.0 | 0.0 | 0.00 | 0.04 | 0.04 | 70 | 1013.3 |
| 20260902150051 | 76 | 111 | 1.0 | 2.0 | 0.00 | 0.04 | 0.04 | 71 | 1013.2 |
| 20260902145546 | 75 | 158 | 0.0 | 2.0 | 0.00 | 0.04 | 0.04 | 74 | 1013.2 |
| 20260902145040 | 74 | 185 | 2.0 | 2.0 | 0.00 | 0.04 | 0.04 | 75 | 1013.2 |
| 20260902144537 | 73 | 164 | 0.0 | 0.0 | 0.00 | 0.04 | 0.04 | 75 | 1013.3 |
| 20260902144032 | 72 | 166 | 0.0 | 0.0 | 0.00 | 0.04 | 0.04 | 78 | 1013.2 |
| 20260902143531 | 71 | 159 | 0.0 | 0.0 | 0.00 | 0.04 | 0.04 | 79 | 1013.5 |
| 20260902143027 | 71 | 154 | 1.0 | 2.0 | 0.00 | 0.04 | 0.04 | 79 | 1013.4 |
| 20260902142523 | 70 | 170 | 1.0 | 2.0 | 0.00 | 0.04 | 0.04 | 80 | 1013.5 |
| 20260902142019 | 70 | 120 | 1.0 | 2.0 | 0.00 | 0.04 | 0.04 | 81 | 1013.4 |
| 20260902141518 | 70 | 89 | 1.0 | 2.0 | 0.00 | 0.04 | 0.04 | 81 | 1013.4 |
| 20260902141013 | 69 | 172 | 1.0 | 2.0 | 0.00 | 0.04 | 0.04 | 82 | 1013.6 |
| 20260902140508 | 69 | 168 | 2.0 | 2.0 | 0.00 | 0.04 | 0.04 | 84 | 1013.6 |
| 20260902140003 | 68 | 175 | 2.0 | 3.0 | 0.00 | 0.04 | 0.04 | 84 | 1013.7 |
| 20260902135457 | 68 | 152 | 0.0 | 0.0 | 0.00 | 0.04 | 0.04 | 84 | 1013.4 |
| 20260902134951 | 69 | 160 | 1.0 | 2.0 | 0.00 | 0.04 | 0.04 | 84 | 1013.5 |
| 20260902134447 | 69 | 167 | 0.0 | 0.0 | 0.00 | 0.04 | 0.04 | 84 | 1013.5 |
| 20260902133942 | 68 | 341 | 5.0 | 5.0 | 0.00 | 0.04 | 0.04 | 84 | 1013.5 |
| 20260902133437 | 68 | 190 | 2.0 | 2.0 | 0.00 | 0.04 | 0.04 | 85 | 1013.5 |
| 20260902132932 | 68 | 154 | 0.0 | 0.0 | 0.00 | 0.04 | 0.04 | 85 | 1013.6 |
| 20260902132427 | 68 | 130 | 0.0 | 2.0 | 0.00 | 0.04 | 0.04 | 86 | 1013.5 |
| 20260902131921 | 68 | 160 | 0.0 | 0.0 | 0.00 | 0.04 | 0.04 | 87 | 1013.6 |
| 20260902131419 | 67 | 158 | 0.0 | 0.0 | 0.00 | 0.04 | 0.04 | 88 | 1013.6 |
| 20260902130918 | 67 | 172 | 0.0 | 2.0 | 0.00 | 0.04 | 0.04 | 88 | 1013.4 |
| 20260902130414 | 66 | 119 | 1.0 | 2.0 | 0.00 | 0.04 | 0.04 | 89 | 1013.1 |
| 20260902125914 | 66 | 174 | 0.0 | 0.0 | 0.00 | 0.04 | 0.04 | 89 | 1013.2 |
| 20260902125410 | 66 | 174 | 1.0 | 2.0 | 0.00 | 0.04 | 0.04 | 89 | 1013.4 |
| 20260902124906 | 66 | 154 | 0.0 | 0.0 | 0.00 | 0.04 | 0.04 | 90 | 1013.5 |
| 20260902124402 | 66 | 233 | 2.0 | 3.0 | 0.00 | 0.04 | 0.04 | 90 | 1013.6 |
| 20260902123856 | 66 | 165 | 0.0 | 0.0 | 0.00 | 0.04 | 0.04 | 91 | 1013.5 |
| 20260902123353 | 66 | 177 | 2.0 | 2.0 | 0.00 | 0.04 | 0.04 | 91 | 1013.4 |
| 20260902122851 | 66 | 152 | 0.0 | 0.0 | 0.00 | 0.04 | 0.04 | 92 | 1013.6 |
| 20260902122348 | 66 | 158 | 0.0 | 0.0 | 0.00 | 0.04 | 0.04 | 93 | 1013.3 |
| 20260902121847 | 65 | 168 | 0.0 | 0.0 | 0.00 | 0.04 | 0.04 | 94 | 1013.5 |
| 20260902121342 | 65 | 169 | 0.0 | 0.0 | 0.00 | 0.04 | 0.04 | 94 | 1013.4 |
| 20260902120838 | 65 | 164 | 0.0 | 0.0 | 0.00 | 0.04 | 0.04 | 94 | 1013.3 |
| 20260902120334 | 65 | 160 | 0.0 | 0.0 | 0.00 | 0.04 | 0.04 | 94 | 1013.3 |
| 20260902115828 | 64 | 137 | 1.0 | 2.0 | 0.00 | 0.04 | 0.04 | 94 | 1013.5 |
| 20260902115325 | 64 | 156 | 0.0 | 0.0 | 0.00 | 0.04 | 0.04 | 94 | 1013.5 |
| 20260902114821 | 64 | 156 | 0.0 | 0.0 | 0.00 | 0.04 | 0.04 | 94 | 1013.6 |
| 20260902114317 | 64 | 156 | 0.0 | 0.0 | 0.00 | 0.04 | 0.04 | 94 | 1013.3 |
| 20260902113817 | 65 | 175 | 0.0 | 0.0 | 0.00 | 0.04 | 0.04 | 94 | 1013.5 |
| 20260902113312 | 65 | 151 | 0.0 | 0.0 | 0.00 | 0.04 | 0.04 | 94 | 1013.5 |
| 20260902112811 | 65 | 148 | 0.0 | 0.0 | 0.00 | 0.04 | 0.04 | 94 | 1013.5 |
| 20260902112308 | 64 | 169 | 0.0 | 0.0 | 0.00 | 0.04 | 0.04 | 94 | 1013.9 |
| 20260902111803 | 64 | 173 | 0.0 | 0.0 | 0.00 | 0.04 | 0.04 | 94 | 1013.8 |
| 20260902111259 | 64 | 177 | 0.0 | 0.0 | 0.00 | 0.04 | 0.04 | 94 | 1014.0 |
| 20260902110755 | 64 | 172 | 0.0 | 0.0 | 0.00 | 0.04 | 0.04 | 94 | 1014.0 |
| 20260902110251 | 64 | 172 | 0.0 | 2.0 | 0.00 | 0.04 | 0.04 | 94 | 1013.8 |
| 20260902105750 | 64 | 164 | 0.0 | 0.0 | 0.00 | 0.04 | 0.04 | 94 | 1013.7 |
| 20260902105245 | 64 | 167 | 0.0 | 0.0 | 0.00 | 0.04 | 0.04 | 94 | 1014.0 |
| 20260902104741 | 64 | 158 | 0.0 | 0.0 | 0.00 | 0.04 | 0.04 | 94 | 1014.2 |
| 20260902104237 | 64 | 170 | 0.0 | 0.0 | 0.00 | 0.04 | 0.04 | 94 | 1014.4 |
| 20260902103736 | 64 | 170 | 0.0 | 0.0 | 0.00 | 0.04 | 0.04 | 94 | 1014.1 |
| 20260902103231 | 65 | 170 | 0.0 | 0.0 | 0.00 | 0.04 | 0.04 | 94 | 1014.2 |
| 20260902102726 | 65 | 170 | 0.0 | 0.0 | 0.00 | 0.04 | 0.04 | 94 | 1014.2 |
| 20260902102224 | 65 | 172 | 0.0 | 0.0 | 0.00 | 0.04 | 0.04 | 93 | 1014.3 |
| 20260902101719 | 65 | 169 | 0.0 | 0.0 | 0.00 | 0.04 | 0.04 | 94 | 1014.0 |
| 20260902101214 | 65 | 169 | 0.0 | 0.0 | 0.00 | 0.04 | 0.04 | 93 | 1014.1 |
| 20260902100713 | 65 | 176 | 0.0 | 0.0 | 0.00 | 0.04 | 0.04 | 93 | 1013.8 |
| 20260902100208 | 65 | 176 | 0.0 | 0.0 | 0.00 | 0.04 | 0.04 | 93 | 1013.8 |
| 20260902095708 | 65 | 181 | 0.0 | 0.0 | 0.00 | 0.04 | 0.04 | 93 | 1013.6 |
| 20260902095208 | 65 | 181 | 0.0 | 0.0 | 0.00 | 0.04 | 0.04 | 93 | 1013.6 |
| 20260902094702 | 65 | 168 | 0.0 | 0.0 | 0.00 | 0.04 | 0.04 | 93 | 1013.3 |
| 20260902094159 | 65 | 163 | 0.0 | 0.0 | 0.00 | 0.04 | 0.04 | 93 | 1013.2 |
| 20260902093658 | 65 | 174 | 0.0 | 0.0 | 0.00 | 0.04 | 0.04 | 93 | 1013.2 |
| 20260902093153 | 65 | 173 | 0.0 | 0.0 | 0.00 | 0.04 | 0.04 | 93 | 1012.9 |
| 20260902092648 | 66 | 177 | 0.0 | 0.0 | 0.00 | 0.04 | 0.04 | 93 | 1012.9 |
| 20260902092142 | 66 | 176 | 0.0 | 0.0 | 0.00 | 0.04 | 0.04 | 93 | 1012.8 |
| 20260902091637 | 66 | 172 | 0.0 | 0.0 | 0.00 | 0.04 | 0.04 | 93 | 1012.4 |
| 20260902091134 | 66 | 175 | 0.0 | 0.0 | 0.00 | 0.04 | 0.04 | 93 | 1012.0 |
| 20260902090629 | 66 | 176 | 0.0 | 0.0 | 0.00 | 0.04 | 0.04 | 93 | 1012.1 |
| 20260902090128 | 66 | 146 | 0.0 | 0.0 | 0.00 | 0.04 | 0.04 | 93 | 1011.9 |
| 20260902085623 | 66 | 141 | 0.0 | 0.0 | 0.00 | 0.04 | 0.04 | 93 | 1012.0 |
| 20260902085118 | 66 | 151 | 1.0 | 2.0 | 0.00 | 0.04 | 0.04 | 93 | 1012.0 |
| 20260902084615 | 66 | 126 | 3.0 | 3.0 | 0.00 | 0.04 | 0.04 | 93 | 1012.0 |
| 20260902084110 | 66 | 158 | 1.0 | 2.0 | 0.00 | 0.04 | 0.04 | 94 | 1012.0 |
| 20260902083605 | 66 | 144 | 1.0 | 2.0 | 0.00 | 0.04 | 0.04 | 94 | 1012.1 |
| 20260902083105 | 65 | 150 | 0.0 | 0.0 | 0.00 | 0.04 | 0.04 | 94 | 1012.4 |
| 20260902082600 | 65 | 131 | 0.0 | 0.0 | 0.00 | 0.04 | 0.04 | 94 | 1012.6 |
| 20260902082057 | 65 | 151 | 0.0 | 0.0 | 0.00 | 0.04 | 0.04 | 94 | 1012.7 |
| 20260902081554 | 65 | 151 | 0.0 | 0.0 | 0.00 | 0.04 | 0.04 | 93 | 1013.1 |
| 20260902081048 | 65 | 151 | 0.0 | 0.0 | 0.00 | 0.04 | 0.04 | 93 | 1013.3 |
| 20260902080543 | 65 | 141 | 0.0 | 0.0 | 0.00 | 0.04 | 0.04 | 93 | 1013.1 |
| 20260902080040 | 65 | 143 | 0.0 | 0.0 | 0.00 | 0.04 | 0.04 | 92 | 1013.2 |
| 20260902075539 | 66 | 140 | 1.0 | 2.0 | 0.00 | 0.04 | 0.04 | 92 | 1013.1 |
| 20260902075035 | 66 | 174 | 0.0 | 0.0 | 0.00 | 0.04 | 0.04 | 91 | 1013.5 |
| 20260902074530 | 66 | 174 | 0.0 | 0.0 | 0.00 | 0.04 | 0.04 | 90 | 1013.5 |
| 20260902074026 | 66 | 175 | 0.0 | 0.0 | 0.00 | 0.04 | 0.04 | 89 | 1012.9 |
| 20260902073521 | 66 | 173 | 0.0 | 0.0 | 0.00 | 0.04 | 0.04 | 89 | 1012.5 |
| 20260902073017 | 67 | 170 | 0.0 | 0.0 | 0.05 | 0.04 | 0.04 | 89 | 1012.4 |
| 20260902072512 | 67 | 147 | 0.0 | 2.0 | 0.12 | 0.04 | 0.04 | 88 | 1012.6 |
| 20260902072009 | 67 | 142 | 0.0 | 2.0 | 0.07 | 0.03 | 0.03 | 87 | 1012.9 |
| 20260902071508 | 68 | 144 | 0.0 | 2.0 | 0.07 | 0.03 | 0.03 | 86 | 1013.6 |
| 20260902071005 | 69 | 172 | 2.0 | 2.0 | 0.05 | 0.02 | 0.02 | 84 | 1014.0 |
| 20260902070500 | 69 | 163 | 0.0 | 0.0 | 0.12 | 0.02 | 0.02 | 84 | 1014.4 |
| 20260902065959 | 70 | 178 | 3.0 | 5.0 | 0.07 | 0.01 | 0.01 | 83 | 1014.6 |
| 20260902065453 | 70 | 146 | 2.0 | 3.0 | 0.00 | 0.00 | 0.00 | 85 | 1014.9 |
| 20260902064948 | 70 | 175 | 2.0 | 3.0 | 0.00 | 0.00 | 0.00 | 85 | 1015.1 |
| 20260902064444 | 70 | 85 | 1.0 | 2.0 | 0.00 | 0.00 | 0.00 | 84 | 1015.5 |
| 20260902063940 | 70 | 179 | 2.0 | 2.0 | 0.00 | 0.00 | 0.00 | 83 | 1015.2 |
| 20260902063439 | 71 | 169 | 0.0 | 0.0 | 0.00 | 0.00 | 0.00 | 79 | 1014.7 |
| 20260902062935 | 71 | 169 | 0.0 | 0.0 | 0.00 | 0.00 | 0.00 | 77 | 1015.0 |
| 20260902062433 | 71 | 169 | 0.0 | 0.0 | 0.00 | 0.00 | 0.00 | 75 | 1014.9 |
| 20260902061928 | 71 | 169 | 0.0 | 0.0 | 0.00 | 0.00 | 0.00 | 75 | 1014.8 |
| 20260902061424 | 71 | 170 | 0.0 | 0.0 | 0.00 | 0.00 | 0.00 | 76 | 1014.5 |
| 20260902060920 | 71 | 187 | 0.0 | 0.0 | 0.00 | 0.00 | 0.00 | 77 | 1013.8 |
| 20260902060415 | 70 | 178 | 0.0 | 0.0 | 0.00 | 0.00 | 0.00 | 78 | 1013.6 |
| 20260902055911 | 70 | 169 | 0.0 | 0.0 | 0.00 | 0.00 | 0.00 | 77 | 1013.4 |
| 20260902055407 | 70 | 169 | 0.0 | 0.0 | 0.00 | 0.00 | 0.00 | 78 | 1013.2 |
| 20260902054902 | 70 | 168 | 0.0 | 0.0 | 0.00 | 0.00 | 0.00 | 78 | 1012.8 |
| 20260902054357 | 70 | 160 | 0.0 | 0.0 | 0.00 | 0.00 | 0.00 | 78 | 1012.6 |
| 20260902053854 | 70 | 159 | 0.0 | 0.0 | 0.00 | 0.00 | 0.00 | 78 | 1013.1 |
| 20260902053354 | 70 | 156 | 0.0 | 0.0 | 0.00 | 0.00 | 0.00 | 78 | 1013.4 |
| 20260902052853 | 70 | 163 | 0.0 | 0.0 | 0.00 | 0.00 | 0.00 | 77 | 1013.7 |
| 20260902052348 | 71 | 163 | 0.0 | 0.0 | 0.00 | 0.00 | 0.00 | 77 | 1013.6 |
| 20260902051843 | 71 | 160 | 0.0 | 0.0 | 0.00 | 0.00 | 0.00 | 77 | 1013.8 |
| 20260902051344 | 71 | 173 | 0.0 | 0.0 | 0.00 | 0.00 | 0.00 | 77 | 1014.1 |
| 20260902050843 | 71 | 173 | 0.0 | 0.0 | 0.00 | 0.00 | 0.00 | 78 | 1014.2 |
| 20260902050343 | 71 | 173 | 0.0 | 0.0 | 0.00 | 0.00 | 0.00 | 77 | 1014.1 |
| 20260902045838 | 71 | 173 | 0.0 | 0.0 | 0.00 | 0.00 | 0.00 | 77 | 1013.9 |
| 20260902045334 | 71 | 171 | 0.0 | 0.0 | 0.00 | 0.00 | 0.00 | 77 | 1013.7 |
| 20260902044830 | 70 | 167 | 0.0 | 0.0 | 0.00 | 0.00 | 0.00 | 77 | 1013.3 |
| 20260902044325 | 70 | 174 | 0.0 | 0.0 | 0.00 | 0.00 | 0.00 | 79 | 1013.6 |
| 20260902043826 | 70 | 169 | 0.0 | 0.0 | 0.00 | 0.00 | 0.00 | 78 | 1013.6 |
| 20260902043321 | 70 | 169 | 0.0 | 0.0 | 0.00 | 0.00 | 0.00 | 78 | 1013.5 |
| 20260902042820 | 70 | 169 | 0.0 | 0.0 | 0.00 | 0.00 | 0.00 | 78 | 1013.5 |
| 20260902042315 | 71 | 169 | 0.0 | 0.0 | 0.00 | 0.00 | 0.00 | 78 | 1013.4 |
| 20260902041810 | 71 | 166 | 0.0 | 0.0 | 0.00 | 0.00 | 0.00 | 77 | 1012.8 |
| 20260902041310 | 71 | 166 | 0.0 | 0.0 | 0.00 | 0.00 | 0.00 | 77 | 1012.9 |
| 20260902040809 | 71 | 166 | 0.0 | 0.0 | 0.00 | 0.00 | 0.00 | 76 | 1013.1 |
| 20260902040305 | 71 | 168 | 0.0 | 0.0 | 0.00 | 0.00 | 0.00 | 76 | 1013.2 |
| 20260902035803 | 71 | 176 | 0.0 | 0.0 | 0.00 | 0.00 | 0.00 | 76 | 1013.2 |
| 20260902035259 | 71 | 181 | 0.0 | 0.0 | 0.00 | 0.00 | 0.00 | 75 | 1013.1 |
| 20260902034757 | 71 | 166 | 0.0 | 0.0 | 0.00 | 0.00 | 0.00 | 76 | 1013.2 |
| 20260902034253 | 71 | 166 | 0.0 | 0.0 | 0.00 | 0.00 | 0.00 | 75 | 1013.4 |
| 20260902033751 | 71 | 169 | 0.0 | 0.0 | 0.00 | 0.00 | 0.00 | 75 | 1013.6 |
| 20260902033246 | 71 | 168 | 0.0 | 0.0 | 0.00 | 0.00 | 0.00 | 74 | 1013.6 |
| 20260902032744 | 71 | 168 | 0.0 | 0.0 | 0.00 | 0.00 | 0.00 | 74 | 1013.4 |
| 20260902032240 | 71 | 168 | 0.0 | 0.0 | 0.00 | 0.00 | 0.00 | 74 | 1013.8 |
| 20260902031740 | 71 | 168 | 0.0 | 0.0 | 0.00 | 0.00 | 0.00 | 74 | 1014.0 |
| 20260902031235 | 71 | 168 | 0.0 | 0.0 | 0.00 | 0.00 | 0.00 | 74 | 1013.8 |
| 20260902030731 | 71 | 168 | 0.0 | 0.0 | 0.00 | 0.00 | 0.00 | 74 | 1014.0 |
| 20260902030225 | 71 | 168 | 0.0 | 0.0 | 0.00 | 0.00 | 0.00 | 74 | 1013.9 |
| 20260902025725 | 72 | 168 | 0.0 | 0.0 | 0.00 | 0.00 | 0.00 | 74 | 1013.7 |
| 20260902025220 | 72 | 168 | 0.0 | 0.0 | 0.00 | 0.00 | 0.00 | 72 | 1013.6 |
| 20260902024715 | 72 | 168 | 0.0 | 0.0 | 0.00 | 0.00 | 0.00 | 72 | 1013.7 |
| 20260902024210 | 73 | 168 | 0.0 | 0.0 | 0.00 | 0.00 | 0.00 | 72 | 1013.5 |
| 20260902023706 | 73 | 168 | 0.0 | 0.0 | 0.00 | 0.00 | 0.00 | 71 | 1013.6 |
| 20260902023201 | 73 | 168 | 0.0 | 0.0 | 0.00 | 0.00 | 0.00 | 70 | 1013.6 |
| 20260902022700 | 73 | 168 | 0.0 | 0.0 | 0.00 | 0.00 | 0.00 | 70 | 1013.5 |
| 20260902022156 | 73 | 168 | 0.0 | 0.0 | 0.00 | 0.00 | 0.00 | 69 | 1013.5 |
| 20260902021651 | 74 | 168 | 0.0 | 0.0 | 0.00 | 0.00 | 0.00 | 69 | 1013.5 |
| 20260902021146 | 74 | 169 | 0.0 | 0.0 | 0.00 | 0.00 | 0.00 | 68 | 1013.8 |
| 20260902020643 | 74 | 169 | 0.0 | 0.0 | 0.00 | 0.00 | 0.00 | 68 | 1013.6 |
| 20260902020138 | 74 | 168 | 0.0 | 0.0 | 0.00 | 0.00 | 0.00 | 67 | 1013.4 |
| 20260902015633 | 74 | 169 | 0.0 | 0.0 | 0.00 | 0.00 | 0.00 | 67 | 1013.6 |
| 20260902015130 | 74 | 169 | 0.0 | 0.0 | 0.00 | 0.00 | 0.00 | 66 | 1013.6 |
| 20260902014625 | 75 | 169 | 0.0 | 0.0 | 0.00 | 0.00 | 0.00 | 67 | 1013.3 |
| 20260902014121 | 75 | 169 | 0.0 | 0.0 | 0.00 | 0.00 | 0.00 | 66 | 1013.3 |
| 20260902013620 | 75 | 169 | 0.0 | 0.0 | 0.00 | 0.00 | 0.00 | 65 | 1013.3 |
| 20260902013116 | 76 | 169 | 0.0 | 0.0 | 0.00 | 0.00 | 0.00 | 64 | 1013.6 |
| 20260902012611 | 76 | 169 | 0.0 | 0.0 | 0.00 | 0.00 | 0.00 | 63 | 1013.3 |
| 20260902012106 | 77 | 169 | 0.0 | 0.0 | 0.00 | 0.00 | 0.00 | 62 | 1013.1 |
| 20260902011602 | 77 | 169 | 0.0 | 0.0 | 0.00 | 0.00 | 0.00 | 62 | 1013.4 |
| 20260902011101 | 77 | 169 | 0.0 | 0.0 | 0.00 | 0.00 | 0.00 | 62 | 1013.1 |
| 20260902010600 | 78 | 167 | 0.0 | 0.0 | 0.00 | 0.00 | 0.00 | 61 | 1013.2 |
| 20260902010056 | 78 | 167 | 0.0 | 0.0 | 0.00 | 0.00 | 0.00 | 61 | 1012.9 |
| 20260902005553 | 78 | 167 | 0.0 | 0.0 | 0.00 | 0.00 | 0.00 | 60 | 1013.1 |
| 20260902005050 | 78 | 163 | 0.0 | 0.0 | 0.00 | 0.00 | 0.00 | 60 | 1012.9 |
| 20260902004549 | 79 | 166 | 0.0 | 0.0 | 0.00 | 0.00 | 0.00 | 59 | 1012.9 |
| 20260902004045 | 79 | 166 | 0.0 | 0.0 | 0.00 | 0.00 | 0.00 | 59 | 1012.9 |
| 20260902003540 | 80 | 170 | 0.0 | 0.0 | 0.00 | 0.00 | 0.00 | 58 | 1013.1 |
| 20260902003035 | 80 | 171 | 0.0 | 0.0 | 0.00 | 0.00 | 0.00 | 58 | 1013.2 |
| 20260902002531 | 81 | 171 | 0.0 | 0.0 | 0.00 | 0.00 | 0.00 | 56 | 1013.1 |
| 20260902002026 | 81 | 167 | 0.0 | 0.0 | 0.00 | 0.00 | 0.00 | 56 | 1013.2 |
| 20260902001520 | 81 | 166 | 0.0 | 0.0 | 0.00 | 0.00 | 0.00 | 56 | 1013.1 |
| 20260902001016 | 82 | 210 | 0.0 | 0.0 | 0.00 | 0.00 | 0.00 | 55 | 1013.4 |
| 20260902000511 | 82 | 175 | 0.0 | 0.0 | 0.00 | 0.00 | 0.00 | 55 | 1013.5 |
| 20260902000005 | 82 | 202 | 0.0 | 2.0 | 0.00 | 0.00 | 0.00 | 56 | 1013.3 |
| 20260901235500 | 82 | 172 | 0.0 | 0.0 | 0.00 | 0.00 | 0.00 | 55 | 1013.3 |
| 20260901234955 | 82 | 157 | 2.0 | 3.0 | 0.00 | 0.00 | 0.00 | 56 | 1013.4 |
| 20260901234449 | 82 | 163 | 0.0 | 0.0 | 0.00 | 0.00 | 0.00 | 56 | 1013.5 |
| 20260901233944 | 82 | 168 | 0.0 | 0.0 | 0.00 | 0.00 | 0.00 | 57 | 1013.4 |
| 20260901233439 | 83 | 157 | 0.0 | 2.0 | 0.00 | 0.00 | 0.00 | 57 | 1013.4 |
| 20260901232936 | 83 | 166 | 0.0 | 0.0 | 0.00 | 0.00 | 0.00 | 58 | 1013.4 |
| 20260901232435 | 83 | 252 | 2.0 | 2.0 | 0.00 | 0.00 | 0.00 | 58 | 1013.3 |
| 20260901231931 | 83 | 202 | 0.0 | 0.0 | 0.00 | 0.00 | 0.00 | 57 | 1013.4 |
| 20260901231427 | 83 | 169 | 0.0 | 0.0 | 0.00 | 0.00 | 0.00 | 57 | 1013.5 |
| 20260901230924 | 84 | 167 | 0.0 | 0.0 | 0.00 | 0.00 | 0.00 | 55 | 1013.6 |
| 20260901230423 | 84 | 170 | 0.0 | 0.0 | 0.00 | 0.00 | 0.00 | 54 | 1013.3 |
| 20260901225919 | 83 | 172 | 0.0 | 0.0 | 0.00 | 0.00 | 0.00 | 55 | 1013.5 |
| 20260901225418 | 83 | 151 | 0.0 | 0.0 | 0.00 | 0.00 | 0.00 | 54 | 1013.6 |
| 20260901224913 | 84 | 169 | 0.0 | 0.0 | 0.00 | 0.00 | 0.00 | 55 | 1013.2 |
| 20260901224410 | 84 | 162 | 0.0 | 0.0 | 0.00 | 0.00 | 0.00 | 52 | 1012.9 |
| 20260901223906 | 84 | 156 | 2.0 | 3.0 | 0.00 | 0.00 | 0.00 | 51 | 1013.4 |
| 20260901223400 | 85 | 175 | 0.0 | 0.0 | 0.00 | 0.00 | 0.00 | 53 | 1013.4 |
| 20260901222856 | 85 | 171 | 0.0 | 2.0 | 0.00 | 0.00 | 0.00 | 51 | 1013.4 |
| 20260901222353 | 86 | 174 | 0.0 | 2.0 | 0.00 | 0.00 | 0.00 | 51 | 1013.4 |
| 20260901221848 | 86 | 101 | 1.0 | 2.0 | 0.00 | 0.00 | 0.00 | 52 | 1013.3 |
| 20260901221344 | 86 | 177 | 0.0 | 2.0 | 0.00 | 0.00 | 0.00 | 52 | 1013.4 |
| 20260901220843 | 86 | 179 | 0.0 | 0.0 | 0.00 | 0.00 | 0.00 | 51 | 1013.3 |
| 20260901220342 | 85 | 164 | 0.0 | 0.0 | 0.00 | 0.00 | 0.00 | 50 | 1013.3 |
| 20260901215841 | 85 | 339 | 0.0 | 2.0 | 0.00 | 0.00 | 0.00 | 50 | 1013.4 |
| 20260901215340 | 85 | 152 | 0.0 | 2.0 | 0.00 | 0.00 | 0.00 | 51 | 1013.3 |
| 20260901214839 | 86 | 185 | 0.0 | 0.0 | 0.00 | 0.00 | 0.00 | 50 | 1013.2 |
| 20260901214338 | 86 | 177 | 0.0 | 2.0 | 0.00 | 0.00 | 0.00 | 49 | 1013.2 |
| 20260901213833 | 87 | 167 | 0.0 | 0.0 | 0.00 | 0.00 | 0.00 | 49 | 1013.2 |
| 20260901213333 | 87 | 124 | 2.0 | 2.0 | 0.00 | 0.00 | 0.00 | 45 | 1013.4 |
| 20260901212827 | 87 | 191 | 0.0 | 0.0 | 0.00 | 0.00 | 0.00 | 46 | 1013.2 |
| 20260901212323 | 87 | 172 | 0.0 | 0.0 | 0.00 | 0.00 | 0.00 | 46 | 1013.4 |
| 20260901211819 | 86 | 194 | 1.0 | 2.0 | 0.00 | 0.00 | 0.00 | 47 | 1013.2 |
| 20260901211315 | 86 | 169 | 0.0 | 0.0 | 0.00 | 0.00 | 0.00 | 48 | 1013.2 |